#�ϑ�����,���ϕ���,���ϕ���,�ő啗��,�ő啗����������,�ő�u�ԕ���,�ő�u�ԕ�����������
#(�N����),(m/s)   ,(16����),(m/s)   ,(16����)        ,(m/s)       ,(16����)            
2018/9/26 0:01,1,7,1.2,7,1.5,16
2018/9/26 0:02,1,8,1,7,3.1,8
2018/9/26 0:03,1.2,8,1.2,7,3.5,7
2018/9/26 0:04,1.3,8,1.3,6,5.2,11
2018/9/26 0:05,1.3,8,1.3,6,1.8,16
2018/9/26 0:06,1.3,8,1.3,7,2.6,15
2018/9/26 0:07,1.4,8,1.4,8,3.3,16
2018/9/26 0:08,1.6,7,1.6,7,4.5,2
2018/9/26 0:09,1.6,7,1.6,7,2.2,10
2018/9/26 0:10,1.6,8,1.6,7,1.4,5
2018/9/26 0:11,1.6,9,1.6,7,2,10
2018/9/26 0:12,1.5,9,1.6,7,2.2,7
2018/9/26 0:13,1.5,8,1.5,7,3.6,6
2018/9/26 0:14,1.4,8,1.5,7,3,6
2018/9/26 0:15,1.6,7,1.6,7,4.4,7
2018/9/26 0:16,1.7,7,1.7,7,4.1,7
2018/9/26 0:17,1.7,7,1.7,7,3.5,8
2018/9/26 0:18,1.6,8,1.7,7,3.7,8
2018/9/26 0:19,1.8,8,1.8,8,5.2,8
2018/9/26 0:20,1.9,8,1.9,8,3.2,8
2018/9/26 0:21,2,7,2,8,2.6,7
2018/9/26 0:22,2,8,2,8,1.8,9
2018/9/26 0:23,1.9,8,2,8,2.4,8
2018/9/26 0:24,1.8,8,1.9,8,2.1,9
2018/9/26 0:25,1.7,8,1.8,8,1.8,8
2018/9/26 0:26,1.5,8,1.6,8,2.7,11
2018/9/26 0:27,1.7,9,1.7,8,3.9,13
2018/9/26 0:28,1.6,9,1.7,8,2.6,14
2018/9/26 0:29,1.5,10,1.6,8,2.5,13
2018/9/26 0:30,1.5,11,1.5,8,2,12
2018/9/26 0:31,1.5,11,1.5,7,1.8,12
2018/9/26 0:32,1.4,12,1.5,8,1.5,12
2018/9/26 0:33,1.4,12,1.5,8,1.8,12
2018/9/26 0:34,1.5,12,1.5,8,2.6,10
2018/9/26 0:35,1.6,12,1.6,9,2.7,9
2018/9/26 0:36,1.7,12,1.7,9,2.5,10
2018/9/26 0:37,1.6,11,1.7,9,2.2,11
2018/9/26 0:38,1.5,11,1.6,12,1.5,14
2018/9/26 0:39,1.5,11,1.5,12,1.8,12
2018/9/26 0:40,1.5,11,1.5,12,2.4,13
2018/9/26 0:41,1.6,11,1.6,12,3,12
2018/9/26 0:42,1.7,11,1.7,12,5.2,1
2018/9/26 0:43,1.7,12,1.7,12,4.3,1
2018/9/26 0:44,1.7,12,1.7,12,4.9,10
2018/9/26 0:45,1.6,12,1.7,12,3.1,11
2018/9/26 0:46,1.5,12,1.6,12,1.9,6
2018/9/26 0:47,1.5,13,1.5,11,3.1,12
2018/9/26 0:48,1.7,13,1.7,11,4.3,14
2018/9/26 0:49,1.7,14,1.7,11,7.1,2
2018/9/26 0:50,1.8,15,1.8,14,3,4
2018/9/26 0:51,1.6,1,1.8,14,2.5,2
2018/9/26 0:52,1.6,2,1.6,14,2.9,3
2018/9/26 0:53,1.5,3,1.5,14,2,3
2018/9/26 0:54,1.3,3,1.5,14,0.5,4
2018/9/26 0:55,1.3,3,1.3,14,1.4,2
2018/9/26 0:56,1.5,3,1.5,14,6.7,16
2018/9/26 0:57,1.5,3,1.5,14,2.6,4
2018/9/26 0:58,1.4,3,1.5,14,3,2
2018/9/26 0:59,1.6,3,1.6,14,9,4
2018/9/26 1:00,1.8,3,1.8,16,8.1,3
2018/9/26 1:01,2.1,3,2.1,3,6.3,1
2018/9/26 1:02,2.2,3,2.2,3,4.3,2
2018/9/26 1:03,2.3,3,2.3,3,3,1
2018/9/26 1:04,2.5,3,2.5,3,2.7,2
2018/9/26 1:05,2.6,3,2.6,3,2.9,4
2018/9/26 1:06,2.5,3,2.6,3,3,16
2018/9/26 1:07,2.6,2,2.6,3,7.2,16
2018/9/26 1:08,2.8,2,2.8,2,8.9,16
2018/9/26 1:09,2.6,2,2.8,2,7,1
2018/9/26 1:10,2.4,2,2.6,2,6.7,2
2018/9/26 1:11,2.2,2,2.4,2,3.6,3
2018/9/26 1:12,2.3,2,2.3,2,6.8,3
2018/9/26 1:13,2.4,2,2.4,2,5.1,9
2018/9/26 1:14,2.4,2,2.4,2,4.8,12
2018/9/26 1:15,2.3,2,2.3,2,2.2,8
2018/9/26 1:16,2.2,2,2.3,2,3.3,9
2018/9/26 1:17,2.1,1,2.2,2,1.9,16
2018/9/26 1:18,1.8,1,2,2,2.5,16
2018/9/26 1:19,1.8,14,1.9,2,2.5,11
2018/9/26 1:20,1.6,10,1.8,2,2,10
2018/9/26 1:21,1.7,10,1.7,2,4.1,9
2018/9/26 1:22,1.6,10,1.7,2,4.1,9
2018/9/26 1:23,1.4,11,1.6,2,2.2,16
2018/9/26 1:24,1.2,11,1.3,2,1.3,13
2018/9/26 1:25,1.2,12,1.2,2,2,9
2018/9/26 1:26,1.2,12,1.2,2,1.5,9
2018/9/26 1:27,1.2,12,1.2,1,5.6,16
2018/9/26 1:28,1.4,12,1.4,1,5.4,16
2018/9/26 1:29,1.7,13,1.7,13,5.1,2
2018/9/26 1:30,1.9,14,1.9,14,5.8,2
2018/9/26 1:31,2.1,16,2.1,15,10.6,3
2018/9/26 1:32,2.5,16,2.5,16,7.9,6
2018/9/26 1:33,2.7,1,2.7,1,6.9,7
2018/9/26 1:34,3,2,3,2,7.6,2
2018/9/26 1:35,3.4,2,3.4,2,9.8,3
2018/9/26 1:36,3.6,2,3.6,2,7.5,2
2018/9/26 1:37,3.9,2,4,2,9.1,3
2018/9/26 1:38,4.2,3,4.2,3,11.1,2
2018/9/26 1:39,4.1,3,4.2,3,7.4,1
2018/9/26 1:40,3.9,3,4.1,3,4.8,3
2018/9/26 1:41,3.8,3,3.9,3,6.1,2
2018/9/26 1:42,3.7,2,3.8,3,7.8,3
2018/9/26 1:43,4,2,4,3,9.4,3
2018/9/26 1:44,4.1,2,4.1,3,11,2
2018/9/26 1:45,4.3,2,4.3,2,13,1
2018/9/26 1:46,4.6,2,4.6,2,13.2,2
2018/9/26 1:47,4.7,2,4.7,2,13,2
2018/9/26 1:48,4.6,2,4.8,2,8.2,4
2018/9/26 1:49,4.7,2,4.7,2,9.9,16
2018/9/26 1:50,5.2,2,5.2,2,13.5,16
2018/9/26 1:51,5.4,2,5.4,2,13,15
2018/9/26 1:52,5.2,2,5.4,2,9.2,16
2018/9/26 1:53,5.4,1,5.4,2,12.1,16
2018/9/26 1:54,5.5,1,5.5,1,12.8,16
2018/9/26 1:55,5.6,1,5.6,1,14.3,14
2018/9/26 1:56,5.7,1,5.7,1,12.2,16
2018/9/26 1:57,5.8,16,5.9,1,12.6,16
2018/9/26 1:58,5.8,16,5.8,1,12.5,2
2018/9/26 1:59,5.8,16,5.8,1,7.9,1
2018/9/26 2:00,6,16,6,16,15,1
2018/9/26 2:01,5.9,16,6,16,13.2,2
2018/9/26 2:02,6.2,16,6.2,16,13.3,2
2018/9/26 2:03,5.7,16,6.1,16,7.8,16
2018/9/26 2:04,5.5,16,5.8,16,7.6,1
2018/9/26 2:05,5.3,16,5.5,16,12.5,3
2018/9/26 2:06,5.4,16,5.4,16,13.8,1
2018/9/26 2:07,5,16,5.3,16,10.1,16
2018/9/26 2:08,5,16,5,16,10.7,1
2018/9/26 2:09,5.3,16,5.3,16,13.9,2
2018/9/26 2:10,5,1,5.2,16,15.9,16
2018/9/26 2:11,5.3,16,5.4,16,19.2,15
2018/9/26 2:12,5.6,16,5.6,16,14.4,16
2018/9/26 2:13,6.3,16,6.3,16,14,1
2018/9/26 2:14,6.3,16,6.3,16,15.1,15
2018/9/26 2:15,6.3,16,6.4,16,10,1
2018/9/26 2:16,6.1,16,6.3,16,12.5,14
2018/9/26 2:17,6.4,16,6.4,16,10,1
2018/9/26 2:18,6.4,16,6.4,16,11.1,16
2018/9/26 2:19,6.4,16,6.5,16,14.7,1
2018/9/26 2:20,6.4,16,6.5,16,13,2
2018/9/26 2:21,6.1,16,6.3,16,13.6,2
2018/9/26 2:22,6,1,6.1,16,13.4,2
2018/9/26 2:23,5.5,16,6,16,8.7,15
2018/9/26 2:24,5.4,16,5.4,16,8.9,2
2018/9/26 2:25,5.2,1,5.5,16,7.6,2
2018/9/26 2:26,5,1,5.2,16,10,2
2018/9/26 2:27,4.7,1,5,16,9.2,2
2018/9/26 2:28,4.6,1,4.7,16,10.3,1
2018/9/26 2:29,4.4,1,4.6,16,10.2,1
2018/9/26 2:30,4.1,1,4.3,16,9.4,2
2018/9/26 2:31,3.9,1,4.1,16,9.2,1
2018/9/26 2:32,3.7,1,3.9,1,10.3,2
2018/9/26 2:33,3.6,1,3.7,1,8.2,16
2018/9/26 2:34,3.8,1,3.8,1,10.6,15
2018/9/26 2:35,3.8,1,3.8,1,9.3,15
2018/9/26 2:36,3.7,1,3.9,1,6.9,2
2018/9/26 2:37,3.6,1,3.7,1,4.7,16
2018/9/26 2:38,3.8,1,3.8,1,9.8,1
2018/9/26 2:39,3.8,1,3.8,1,7.8,2
2018/9/26 2:40,3.6,1,3.7,1,5.8,4
2018/9/26 2:41,3.5,1,3.7,1,2.9,4
2018/9/26 2:42,3.5,1,3.5,1,6.9,12
2018/9/26 2:43,3.3,2,3.4,1,4.2,8
2018/9/26 2:44,3,1,3.2,1,7.4,2
2018/9/26 2:45,3.1,2,3.1,1,9.9,3
2018/9/26 2:46,3.1,2,3.1,1,7.1,2
2018/9/26 2:47,3.1,2,3.1,1,6.2,5
2018/9/26 2:48,3,2,3.2,1,9.4,2
2018/9/26 2:49,3.2,2,3.2,1,8.6,16
2018/9/26 2:50,3.4,1,3.4,1,9.4,16
2018/9/26 2:51,3.4,1,3.4,1,3.8,4
2018/9/26 2:52,3.3,2,3.3,1,10.5,3
2018/9/26 2:53,3.5,1,3.5,1,9,3
2018/9/26 2:54,3.6,1,3.6,1,7.1,1
2018/9/26 2:55,3.5,1,3.6,1,9,1
2018/9/26 2:56,3.4,1,3.5,1,8.2,16
2018/9/26 2:57,3.6,1,3.6,1,10.8,1
2018/9/26 2:58,3.6,1,3.6,1,8.1,3
2018/9/26 2:59,3.7,1,3.7,1,8.6,2
2018/9/26 3:00,3.9,1,3.9,1,10.7,16
2018/9/26 3:01,4.2,16,4.2,1,11.8,16
2018/9/26 3:02,4.3,16,4.4,16,5.4,15
2018/9/26 3:03,4.2,16,4.2,16,6.7,16
2018/9/26 3:04,4.2,16,4.3,16,8.2,14
2018/9/26 3:05,4.5,16,4.5,16,13.6,14
2018/9/26 3:06,4.8,16,4.8,16,12.6,1
2018/9/26 3:07,4.9,16,4.9,16,8.6,16
2018/9/26 3:08,5,16,5,16,9.1,15
2018/9/26 3:09,5,16,5,16,11.3,2
2018/9/26 3:10,5.1,16,5.1,16,15,16
2018/9/26 3:11,5.3,16,5.3,16,12.4,15
2018/9/26 3:12,5.3,16,5.3,16,9.8,15
2018/9/26 3:13,5.4,16,5.4,16,7.8,16
2018/9/26 3:14,5.3,16,5.4,16,7.5,2
2018/9/26 3:15,5.3,16,5.3,16,9.2,16
2018/9/26 3:16,5.4,1,5.4,16,13.4,16
2018/9/26 3:17,5.4,1,5.5,1,8.4,16
2018/9/26 3:18,5.6,1,5.7,1,10.8,15
2018/9/26 3:19,5.5,1,5.6,1,11.9,1
2018/9/26 3:20,5.1,1,5.5,1,11.9,16
2018/9/26 3:21,4.9,1,5.1,1,12.6,1
2018/9/26 3:22,5.1,1,5.1,1,11.5,2
2018/9/26 3:23,5.4,1,5.4,1,12.5,15
2018/9/26 3:24,5.7,16,5.8,16,10.5,15
2018/9/26 3:25,5.6,16,5.7,16,10,1
2018/9/26 3:26,5.4,16,5.6,16,9.5,2
2018/9/26 3:27,5.4,16,5.4,16,12.5,15
2018/9/26 3:28,5,16,5.4,16,9,16
2018/9/26 3:29,4.7,16,5,16,7.2,2
2018/9/26 3:30,4.9,16,4.9,16,13.3,16
2018/9/26 3:31,5,16,5.1,16,11.1,1
2018/9/26 3:32,5,16,5.1,16,10,1
2018/9/26 3:33,4.6,16,5,16,8.9,2
2018/9/26 3:34,4.5,16,4.5,16,15,1
2018/9/26 3:35,4.6,16,4.7,16,14.2,1
2018/9/26 3:36,4.9,16,4.9,16,12.7,1
2018/9/26 3:37,4.9,16,5,16,11.9,16
2018/9/26 3:38,5.2,1,5.2,1,9.7,15
2018/9/26 3:39,5.4,1,5.4,1,11.3,2
2018/9/26 3:40,5.4,1,5.6,1,10.2,15
2018/9/26 3:41,5.4,1,5.4,1,11.9,2
2018/9/26 3:42,5.2,1,5.4,1,8.2,15
2018/9/26 3:43,5.5,1,5.5,1,16.7,16
2018/9/26 3:44,5.5,1,5.6,1,15,16
2018/9/26 3:45,5.4,1,5.6,1,14.9,2
2018/9/26 3:46,5.2,1,5.4,1,10.5,1
2018/9/26 3:47,4.9,1,5.1,1,6.8,2
2018/9/26 3:48,5.1,1,5.1,1,11.3,1
2018/9/26 3:49,5.1,1,5.1,1,9.5,15
2018/9/26 3:50,5.3,1,5.3,1,11.4,1
2018/9/26 3:51,5.3,1,5.4,1,11.1,2
2018/9/26 3:52,5.5,1,5.5,1,11.4,2
2018/9/26 3:53,5.5,1,5.6,1,11.7,1
2018/9/26 3:54,5.9,1,5.9,1,15.4,16
2018/9/26 3:55,6,16,6,1,10.3,1
2018/9/26 3:56,6.3,16,6.3,16,15.8,14
2018/9/26 3:57,6.5,16,6.5,16,12.2,2
2018/9/26 3:58,6.3,16,6.4,16,12.2,16
2018/9/26 3:59,6.3,16,6.4,16,12.8,1
2018/9/26 4:00,5.9,16,6.3,16,8.1,1
2018/9/26 4:01,5.9,1,5.9,16,11.1,1
2018/9/26 4:02,6.1,1,6.1,16,14.2,2
2018/9/26 4:03,6.1,1,6.2,16,10.8,15
2018/9/26 4:04,6,1,6.2,16,13.6,16
2018/9/26 4:05,5.9,1,6.1,16,10.3,15
2018/9/26 4:06,5.7,1,6,16,10.7,1
2018/9/26 4:07,5.7,1,5.7,16,12.8,2
2018/9/26 4:08,5.8,1,5.9,16,12.1,2
2018/9/26 4:09,5.9,1,5.9,16,14,16
2018/9/26 4:10,6.1,1,6.1,1,9.8,16
2018/9/26 4:11,6,16,6.1,1,12.6,2
2018/9/26 4:12,5.8,16,6,1,11.6,1
2018/9/26 4:13,6.1,16,6.1,1,17.9,2
2018/9/26 4:14,5.8,16,6.1,1,10,16
2018/9/26 4:15,5.8,16,5.8,1,10.9,16
2018/9/26 4:16,5.7,16,5.8,1,7.7,16
2018/9/26 4:17,5.7,16,5.9,1,13.9,2
2018/9/26 4:18,5.5,16,5.7,1,9.8,16
2018/9/26 4:19,5.2,16,5.6,1,10.1,16
2018/9/26 4:20,5.1,16,5.1,16,6.3,16
2018/9/26 4:21,5.3,16,5.4,16,13.2,15
2018/9/26 4:22,5.2,16,5.2,16,9.2,2
2018/9/26 4:23,5,16,5.2,16,12.6,16
2018/9/26 4:24,4.7,16,5,16,4.4,1
2018/9/26 4:25,4.3,16,4.7,16,4.7,4
2018/9/26 4:26,4.2,1,4.3,16,7.6,14
2018/9/26 4:27,4,16,4.2,16,6.7,14
2018/9/26 4:28,3.9,16,4,16,6.5,14
2018/9/26 4:29,3.8,16,3.8,16,6.1,11
2018/9/26 4:30,3.5,16,3.8,16,2.9,10
2018/9/26 4:31,2.9,16,3.5,16,2.5,7
2018/9/26 4:32,2.7,16,2.9,16,5,10
2018/9/26 4:33,2.3,16,2.6,16,4.9,2
2018/9/26 4:34,2.3,15,2.4,16,4.9,10
2018/9/26 4:35,2.3,10,2.3,1,3.3,8
2018/9/26 4:36,2.2,8,2.4,1,4.3,9
2018/9/26 4:37,2,8,2.2,16,2.2,7
2018/9/26 4:38,1.9,8,2,16,3.6,8
2018/9/26 4:39,1.8,9,1.9,16,3.2,14
2018/9/26 4:40,1.9,9,1.9,16,5.1,16
2018/9/26 4:41,1.9,9,2,16,5.1,1
2018/9/26 4:42,1.8,9,1.9,16,1.6,5
2018/9/26 4:43,1.9,9,1.9,16,4.8,8
2018/9/26 4:44,2,9,2,10,4.5,7
2018/9/26 4:45,2,10,2,10,4.1,11
2018/9/26 4:46,2.1,10,2.1,8,4.9,9
2018/9/26 4:47,2.1,10,2.1,10,4.2,7
2018/9/26 4:48,2,11,2.1,10,1.4,13
2018/9/26 4:49,2,10,2,10,4.7,11
2018/9/26 4:50,2.1,10,2.1,10,4.3,12
2018/9/26 4:51,2.2,10,2.2,10,4.3,11
2018/9/26 4:52,2.4,10,2.4,10,3.7,11
2018/9/26 4:53,2.3,10,2.4,10,4.8,9
2018/9/26 4:54,2.3,10,2.3,10,4.5,9
2018/9/26 4:55,2.2,10,2.3,10,2.9,9
2018/9/26 4:56,2.1,10,2.2,10,3.2,9
2018/9/26 4:57,2.2,10,2.2,10,3.9,9
2018/9/26 4:58,2.6,10,2.6,10,8.3,15
2018/9/26 4:59,3,11,3,11,7.9,15
2018/9/26 5:00,3.1,11,3.1,11,7.7,15
2018/9/26 5:01,3.2,11,3.2,11,4.8,12
2018/9/26 5:02,3.2,12,3.2,11,5.6,12
2018/9/26 5:03,3,12,3.1,11,2.1,13
2018/9/26 5:04,2.9,12,3,11,2.7,12
2018/9/26 5:05,2.9,12,2.9,11,2.2,9
2018/9/26 5:06,2.9,13,2.9,11,3.2,9
2018/9/26 5:07,2.9,13,2.9,11,3.1,11
2018/9/26 5:08,2.7,12,2.9,11,3.5,12
2018/9/26 5:09,2.5,12,2.7,11,3.7,12
2018/9/26 5:10,2.2,12,2.4,11,2.7,9
2018/9/26 5:11,1.9,11,2.2,11,2.2,10
2018/9/26 5:12,1.7,11,1.9,12,0.9,9
2018/9/26 5:13,1.7,11,1.7,12,2.5,11
2018/9/26 5:14,1.8,11,1.8,12,3.5,11
2018/9/26 5:15,1.9,11,1.9,12,3.8,9
2018/9/26 5:16,1.8,11,1.9,13,1.8,10
2018/9/26 5:17,1.7,12,1.8,13,2.7,14
2018/9/26 5:18,1.6,12,1.7,12,2.4,14
2018/9/26 5:19,1.4,12,1.6,12,1.6,12
2018/9/26 5:20,1.5,12,1.5,11,2.4,12
2018/9/26 5:21,1.6,12,1.6,11,2.9,12
2018/9/26 5:22,1.8,12,1.8,11,3.5,11
2018/9/26 5:23,1.9,12,1.9,11,3.3,9
2018/9/26 5:24,1.9,12,1.9,11,4.3,9
2018/9/26 5:25,2,12,2,12,3.8,9
2018/9/26 5:26,2.1,11,2.1,11,4.8,10
2018/9/26 5:27,2.1,11,2.1,11,3.7,9
2018/9/26 5:28,2.1,10,2.1,11,3.2,9
2018/9/26 5:29,2.2,10,2.2,10,3,9
2018/9/26 5:30,2.4,9,2.4,9,3.7,7
2018/9/26 5:31,2.3,9,2.4,9,3.9,9
2018/9/26 5:32,2.2,9,2.3,9,1.6,3
2018/9/26 5:33,2,8,2.1,9,1.5,2
2018/9/26 5:34,1.8,8,2,9,1.6,7
2018/9/26 5:35,1.7,8,1.7,9,3.2,13
2018/9/26 5:36,1.7,8,1.7,9,3.8,7
2018/9/26 5:37,1.7,8,1.7,9,3.3,7
2018/9/26 5:38,1.7,8,1.7,9,3.2,8
2018/9/26 5:39,1.6,8,1.7,9,3.2,8
2018/9/26 5:40,1.4,7,1.6,9,1,6
2018/9/26 5:41,1.5,6,1.5,9,4.5,2
2018/9/26 5:42,1.7,7,1.7,9,4.7,3
2018/9/26 5:43,1.9,7,1.9,8,6.9,5
2018/9/26 5:44,2.1,6,2.1,6,4.1,14
2018/9/26 5:45,2.1,6,2.1,6,4.7,15
2018/9/26 5:46,2,6,2.1,6,2.4,9
2018/9/26 5:47,1.9,6,2,6,2.5,10
2018/9/26 5:48,1.9,5,1.9,6,3.8,4
2018/9/26 5:49,2,4,2,6,5.2,1
2018/9/26 5:50,2.1,4,2.1,6,3.2,2
2018/9/26 5:51,2.1,3,2.2,4,4.7,2
2018/9/26 5:52,2.3,2,2.3,2,10.8,2
2018/9/26 5:53,2.4,1,2.4,1,9.2,1
2018/9/26 5:54,2.5,2,2.5,1,5.4,1
2018/9/26 5:55,2.5,2,2.6,2,8.9,1
2018/9/26 5:56,2.6,2,2.6,2,3.7,16
2018/9/26 5:57,2.8,2,2.8,2,8.1,2
2018/9/26 5:58,2.9,2,2.9,2,6.8,1
2018/9/26 5:59,3,1,3,2,7.1,16
2018/9/26 6:00,3.3,1,3.3,1,7.7,1
2018/9/26 6:01,3.5,1,3.5,1,8.3,2
2018/9/26 6:02,3.3,1,3.6,1,5,3
2018/9/26 6:03,3.3,1,3.4,1,12.1,2
2018/9/26 6:04,3.4,1,3.4,1,9.5,2
2018/9/26 6:05,3.4,1,3.4,1,8.3,1
2018/9/26 6:06,3.6,1,3.6,1,7.5,1
2018/9/26 6:07,3.7,1,3.8,1,10.2,16
2018/9/26 6:08,3.6,1,3.7,1,3.7,14
2018/9/26 6:09,3.4,1,3.6,1,5.6,2
2018/9/26 6:10,3.5,2,3.5,1,9.8,2
2018/9/26 6:11,3.3,2,3.5,1,6.5,2
2018/9/26 6:12,3.5,2,3.5,1,11.5,16
2018/9/26 6:13,3.3,2,3.5,1,8.6,16
2018/9/26 6:14,3.1,2,3.4,1,6,16
2018/9/26 6:15,3.2,2,3.2,1,6.2,3
2018/9/26 6:16,2.8,2,3.1,1,4.1,3
2018/9/26 6:17,2.7,2,2.8,1,3.3,13
2018/9/26 6:18,2.7,2,2.7,1,4.7,14
2018/9/26 6:19,2.7,2,2.7,2,11.1,15
2018/9/26 6:20,2.8,1,2.9,2,13.2,16
2018/9/26 6:21,2.8,1,2.9,2,6.9,15
2018/9/26 6:22,2.7,1,2.8,2,7,10
2018/9/26 6:23,2.8,16,2.8,2,5.2,14
2018/9/26 6:24,2.8,16,2.8,2,4.9,6
2018/9/26 6:25,3,16,3,2,9.8,2
2018/9/26 6:26,3.4,15,3.4,15,8.7,15
2018/9/26 6:27,3.4,15,3.4,15,4.2,16
2018/9/26 6:28,3.5,15,3.5,15,6.8,2
2018/9/26 6:29,3.5,15,3.6,15,5.4,2
2018/9/26 6:30,3.3,15,3.5,15,6.4,15
2018/9/26 6:31,3.4,15,3.4,15,6.8,16
2018/9/26 6:32,3.3,15,3.4,15,4.1,11
2018/9/26 6:33,3.2,15,3.3,15,6.8,11
2018/9/26 6:34,3.2,15,3.3,15,6.3,16
2018/9/26 6:35,2.9,14,3.3,15,5.5,6
2018/9/26 6:36,2.8,14,2.9,15,6.4,16
2018/9/26 6:37,2.9,15,2.9,15,6.9,4
2018/9/26 6:38,3.1,15,3.1,15,10,16
2018/9/26 6:39,3.4,15,3.4,15,13.1,16
2018/9/26 6:40,3.4,16,3.5,16,8.6,4
2018/9/26 6:41,3.3,16,3.3,16,5.6,2
2018/9/26 6:42,3.3,1,3.3,16,5.1,3
2018/9/26 6:43,3.5,1,3.5,16,8.3,1
2018/9/26 6:44,3.6,2,3.6,2,8.7,2
2018/9/26 6:45,3.9,1,3.9,1,7.6,2
2018/9/26 6:46,3.9,2,3.9,1,6.9,3
2018/9/26 6:47,3.7,2,3.9,1,6.7,1
2018/9/26 6:48,3.4,2,3.7,1,4.3,7
2018/9/26 6:49,3.1,2,3.3,1,6.1,5
2018/9/26 6:50,2.9,3,3.1,1,3.2,3
2018/9/26 6:51,2.7,2,2.9,1,1.9,3
2018/9/26 6:52,2.6,2,2.7,1,3,1
2018/9/26 6:53,2.4,3,2.6,1,4.3,2
2018/9/26 6:54,2.2,3,2.4,1,4.5,2
2018/9/26 6:55,2.1,3,2.2,1,5.2,1
2018/9/26 6:56,2.2,3,2.2,2,9.3,2
2018/9/26 6:57,2.3,3,2.3,2,4.4,16
2018/9/26 6:58,2.4,2,2.4,2,4.5,5
2018/9/26 6:59,2.4,2,2.4,2,6,4
2018/9/26 7:00,2.6,2,2.6,3,5.1,6
2018/9/26 7:01,2.8,2,2.8,2,9.1,2
2018/9/26 7:02,2.9,2,3,2,6,3
2018/9/26 7:03,2.9,2,2.9,2,5,2
2018/9/26 7:04,2.9,3,2.9,2,4.1,7
2018/9/26 7:05,2.7,3,2.9,2,2.9,9
2018/9/26 7:06,2.3,4,2.7,2,1.3,5
2018/9/26 7:07,2.1,3,2.3,2,0.3,15
2018/9/26 7:08,2,4,2.1,2,5.2,3
2018/9/26 7:09,2.1,4,2.1,2,7.1,4
2018/9/26 7:10,1.9,4,2,2,6.2,4
2018/9/26 7:11,2.1,4,2.1,2,6.4,3
2018/9/26 7:12,2.1,4,2.1,2,4.3,7
2018/9/26 7:13,2.1,5,2.1,2,2.6,5
2018/9/26 7:14,2,5,2.1,3,3,8
2018/9/26 7:15,2.1,5,2.1,3,4.1,8
2018/9/26 7:16,2.1,5,2.1,4,1.5,4
2018/9/26 7:17,2.2,5,2.2,5,2.6,6
2018/9/26 7:18,2.2,6,2.3,5,4.1,8
2018/9/26 7:19,2.1,6,2.2,5,4.8,1
2018/9/26 7:20,2.3,6,2.3,5,8.3,1
2018/9/26 7:21,2.1,6,2.2,5,4.5,3
2018/9/26 7:22,2,5,2.1,5,3.2,3
2018/9/26 7:23,1.9,5,2,5,2.1,3
2018/9/26 7:24,1.7,4,1.9,5,1.1,16
2018/9/26 7:25,1.7,4,1.7,5,2,2
2018/9/26 7:26,1.9,4,1.9,5,3.7,11
2018/9/26 7:27,2,3,2,5,3.8,12
2018/9/26 7:28,1.9,3,2,6,5.5,9
2018/9/26 7:29,1.8,4,1.9,6,2.9,10
2018/9/26 7:30,1.5,5,1.8,6,2,11
2018/9/26 7:31,1.4,9,1.5,6,3.8,2
2018/9/26 7:32,1.6,5,1.6,5,8.7,3
2018/9/26 7:33,1.8,5,1.8,3,6.4,16
2018/9/26 7:34,1.9,5,1.9,3,3.3,4
2018/9/26 7:35,2,2,2,3,4.2,2
2018/9/26 7:36,2.1,4,2.1,2,7,5
2018/9/26 7:37,2.1,3,2.1,2,6.4,5
2018/9/26 7:38,2,3,2.1,2,2.2,6
2018/9/26 7:39,2.1,3,2.1,2,3.6,4
2018/9/26 7:40,2.2,4,2.2,3,3.2,6
2018/9/26 7:41,2.3,5,2.3,4,4.2,10
2018/9/26 7:42,2,5,2.3,4,3,9
2018/9/26 7:43,1.8,6,2,4,1.8,7
2018/9/26 7:44,1.6,6,1.8,4,0.6,13
2018/9/26 7:45,1.5,7,1.6,4,1.4,8
2018/9/26 7:46,1.3,7,1.4,4,1.5,8
2018/9/26 7:47,1,8,1.2,4,0.5,2
2018/9/26 7:48,1.3,8,1.3,4,7.4,2
2018/9/26 7:49,1.3,9,1.3,4,5,7
2018/9/26 7:50,1.4,8,1.4,4,8.9,6
2018/9/26 7:51,1.6,2,1.6,5,6.8,2
2018/9/26 7:52,1.7,1,1.7,5,3.7,15
2018/9/26 7:53,1.8,2,1.8,6,3.3,6
2018/9/26 7:54,1.9,2,1.9,2,2.2,3
2018/9/26 7:55,1.9,2,1.9,2,1.5,3
2018/9/26 7:56,2,3,2,3,3.6,7
2018/9/26 7:57,2.3,4,2.3,4,7.2,9
2018/9/26 7:58,2.1,5,2.4,4,5.6,8
2018/9/26 7:59,2.2,6,2.2,4,4.4,8
2018/9/26 8:00,2.1,7,2.2,4,4.4,10
2018/9/26 8:01,1.8,7,2.1,4,3.9,9
2018/9/26 8:02,1.8,7,1.8,4,2.9,8
2018/9/26 8:03,1.8,8,1.8,4,1.8,7
2018/9/26 8:04,1.8,8,1.8,4,3.6,9
2018/9/26 8:05,1.9,9,1.9,4,2.5,11
2018/9/26 8:06,2,9,2.1,4,5.1,11
2018/9/26 8:07,1.9,9,2,4,3.9,7
2018/9/26 8:08,1.9,9,1.9,6,3.8,3
2018/9/26 8:09,1.9,8,1.9,6,3.1,3
2018/9/26 8:10,1.9,8,1.9,7,2.5,6
2018/9/26 8:11,1.8,8,1.9,9,2.2,7
2018/9/26 8:12,1.7,7,1.8,9,1.1,4
2018/9/26 8:13,1.8,7,1.8,9,3.2,5
2018/9/26 8:14,1.8,6,1.9,9,4.2,7
2018/9/26 8:15,1.9,6,1.9,9,4.2,6
2018/9/26 8:16,1.9,6,1.9,9,3.8,8
2018/9/26 8:17,2,5,2,6,4.9,4
2018/9/26 8:18,2.1,5,2.1,5,5.2,4
2018/9/26 8:19,2.1,6,2.1,5,2.9,7
2018/9/26 8:20,2,6,2.1,5,2.9,7
2018/9/26 8:21,2.1,6,2.1,5,3.5,7
2018/9/26 8:22,2.3,6,2.3,6,4.4,7
2018/9/26 8:23,2.5,6,2.5,6,4.8,6
2018/9/26 8:24,2.5,6,2.6,6,4.5,7
2018/9/26 8:25,2.6,6,2.6,6,5.8,4
2018/9/26 8:26,2.6,6,2.6,6,3.7,5
2018/9/26 8:27,2.5,6,2.6,6,4.9,5
2018/9/26 8:28,2.5,6,2.5,6,4.7,4
2018/9/26 8:29,2.6,6,2.6,6,3.5,3
2018/9/26 8:30,2.6,6,2.6,6,3,8
2018/9/26 8:31,2.7,6,2.7,6,5.1,5
2018/9/26 8:32,2.6,6,2.8,6,5.1,6
2018/9/26 8:33,2.4,5,2.6,6,3.2,6
2018/9/26 8:34,2.3,5,2.4,6,4.7,5
2018/9/26 8:35,2.2,5,2.3,6,2.6,8
2018/9/26 8:36,2.1,6,2.2,6,3.7,8
2018/9/26 8:37,2.2,6,2.2,6,5.2,9
2018/9/26 8:38,2.1,6,2.2,6,4.7,9
2018/9/26 8:39,2.2,6,2.2,6,5.7,6
2018/9/26 8:40,2.2,6,2.2,6,3,2
2018/9/26 8:41,2.1,6,2.2,6,3.5,5
2018/9/26 8:42,2.1,6,2.1,6,3.7,5
2018/9/26 8:43,2.2,6,2.2,5,2.9,6
2018/9/26 8:44,2.1,6,2.2,5,2.5,5
2018/9/26 8:45,2.1,6,2.1,5,1.3,9
2018/9/26 8:46,1.9,6,2,6,1.6,10
2018/9/26 8:47,1.8,6,1.9,6,3.3,3
2018/9/26 8:48,1.8,6,1.8,6,5.1,4
2018/9/26 8:49,1.8,5,1.9,6,3.7,5
2018/9/26 8:50,1.8,5,1.8,6,4.4,3
2018/9/26 8:51,1.8,5,1.8,6,2.2,4
2018/9/26 8:52,1.8,5,1.8,6,5,5
2018/9/26 8:53,1.8,4,1.8,6,3.8,5
2018/9/26 8:54,1.8,4,1.8,6,2.5,1
2018/9/26 8:55,1.9,3,1.9,6,3.5,3
2018/9/26 8:56,2,3,2,3,4.2,2
2018/9/26 8:57,2.1,2,2.1,3,4.9,16
2018/9/26 8:58,2.1,2,2.1,3,6.3,2
2018/9/26 8:59,2.1,2,2.1,3,5.6,2
2018/9/26 9:00,2,2,2.1,3,2.6,6
2018/9/26 9:01,2.2,2,2.2,2,5.1,5
2018/9/26 9:02,2.1,3,2.2,2,4.9,7
2018/9/26 9:03,2,3,2.1,2,1.5,8
2018/9/26 9:04,2.1,3,2.1,2,5.4,6
2018/9/26 9:05,2.2,3,2.2,2,5.2,16
2018/9/26 9:06,2.3,3,2.3,3,4.1,15
2018/9/26 9:07,2.2,4,2.3,3,2,6
2018/9/26 9:08,2,4,2.2,3,1.8,13
2018/9/26 9:09,1.8,4,2,3,2.1,1
2018/9/26 9:10,1.8,14,1.8,3,3.1,14
2018/9/26 9:11,1.8,13,1.9,3,5.4,12
2018/9/26 9:12,1.8,14,1.8,3,4.5,2
2018/9/26 9:13,1.9,15,1.9,3,4.2,3
2018/9/26 9:14,2,15,2,3,4.5,3
2018/9/26 9:15,2,16,2.1,3,4.2,2
2018/9/26 9:16,1.9,16,2,3,3.7,8
2018/9/26 9:17,1.9,16,1.9,4,2.1,10
2018/9/26 9:18,2,1,2,15,3.3,5
2018/9/26 9:19,2.1,2,2.1,15,3.1,3
2018/9/26 9:20,2.2,2,2.2,2,4.1,3
2018/9/26 9:21,2.2,2,2.2,2,6,15
2018/9/26 9:22,2.4,3,2.4,3,6.4,6
2018/9/26 9:23,2.4,3,2.4,3,3.9,3
2018/9/26 9:24,2.3,3,2.4,3,5.1,4
2018/9/26 9:25,2.3,4,2.4,3,3.5,5
2018/9/26 9:26,2.5,4,2.5,4,5.4,4
2018/9/26 9:27,2.5,4,2.5,4,4.4,16
2018/9/26 9:28,2.7,3,2.7,3,5.5,2
2018/9/26 9:29,2.8,3,2.8,3,5.1,4
2018/9/26 9:30,3,3,3,3,8.3,16
2018/9/26 9:31,3.1,3,3.1,3,7.2,2
2018/9/26 9:32,3.1,3,3.1,3,5.8,1
2018/9/26 9:33,3.2,3,3.2,3,7,16
2018/9/26 9:34,3.2,2,3.2,3,9.1,1
2018/9/26 9:35,3.3,2,3.3,2,5.8,2
2018/9/26 9:36,3.3,2,3.3,2,7.6,1
2018/9/26 9:37,3.3,2,3.4,2,5.4,3
2018/9/26 9:38,3.1,2,3.4,2,5.1,16
2018/9/26 9:39,3.1,2,3.1,2,5.5,3
2018/9/26 9:40,2.9,2,3.1,2,6.5,3
2018/9/26 9:41,2.9,2,2.9,2,6.9,2
2018/9/26 9:42,2.9,2,2.9,2,6.5,2
2018/9/26 9:43,3.1,2,3.1,2,8.9,16
2018/9/26 9:44,3.3,2,3.3,2,10.3,1
2018/9/26 9:45,3.5,2,3.5,2,8.4,2
2018/9/26 9:46,3.4,2,3.4,2,7,16
2018/9/26 9:47,3.8,1,3.8,1,10.1,15
2018/9/26 9:48,4.1,2,4.1,2,7.8,2
2018/9/26 9:49,4.2,1,4.2,1,8.4,1
2018/9/26 9:50,4.4,1,4.4,1,8.7,1
2018/9/26 9:51,4.2,1,4.4,1,3.3,1
2018/9/26 9:52,4.3,1,4.4,1,9.9,2
2018/9/26 9:53,4.4,1,4.5,1,9.9,16
2018/9/26 9:54,4.5,1,4.6,1,12.8,2
2018/9/26 9:55,4.4,1,4.4,1,10.1,16
2018/9/26 9:56,4.4,1,4.5,1,9.9,2
2018/9/26 9:57,4.4,1,4.5,1,11.7,16
2018/9/26 9:58,4.5,1,4.5,1,11.9,2
2018/9/26 9:59,4.7,1,4.7,1,9.9,2
2018/9/26 10:00,4.9,1,4.9,1,14.3,16
2018/9/26 10:01,5.5,1,5.5,1,12.1,16
2018/9/26 10:02,5.8,1,5.8,1,14.4,16
2018/9/26 10:03,5.6,1,5.8,1,8.4,1
2018/9/26 10:04,5.3,16,5.6,1,7.8,1
2018/9/26 10:05,5.3,16,5.3,1,10,16
2018/9/26 10:06,5.7,16,5.7,1,11.3,16
2018/9/26 10:07,5.6,16,5.8,1,10.2,16
2018/9/26 10:08,5.3,16,5.6,1,5,16
2018/9/26 10:09,4.9,16,5.2,1,6,1
2018/9/26 10:10,4.8,16,4.9,1,10.9,15
2018/9/26 10:11,5,16,5,1,18.1,15
2018/9/26 10:12,4.9,16,5.1,1,12.8,16
2018/9/26 10:13,5.1,16,5.1,16,10.2,1
2018/9/26 10:14,5.4,16,5.4,16,15.7,16
2018/9/26 10:15,5.6,16,5.6,16,14,16
2018/9/26 10:16,5.3,16,5.6,16,10.1,1
2018/9/26 10:17,5.3,16,5.3,16,9.1,16
2018/9/26 10:18,5.7,16,5.7,16,14.5,16
2018/9/26 10:19,6,16,6,16,9.2,16
2018/9/26 10:20,5.8,16,6,16,8.3,1
2018/9/26 10:21,5.5,16,5.9,16,13,16
2018/9/26 10:22,5.4,16,5.5,16,8.4,16
2018/9/26 10:23,5.4,16,5.4,16,8.5,1
2018/9/26 10:24,5.3,16,5.5,16,8.6,1
2018/9/26 10:25,5.1,16,5.2,16,11.9,2
2018/9/26 10:26,5.3,16,5.3,16,12.6,2
2018/9/26 10:27,5.4,16,5.4,16,10.6,1
2018/9/26 10:28,5.3,1,5.4,16,11.3,16
2018/9/26 10:29,5.5,1,5.5,16,14,1
2018/9/26 10:30,5.7,1,5.8,16,10.8,2
2018/9/26 10:31,5.5,1,5.7,1,6.5,16
2018/9/26 10:32,5.5,1,5.6,1,13.2,16
2018/9/26 10:33,5.5,1,5.6,1,8.2,16
2018/9/26 10:34,5.4,1,5.5,1,7.5,1
2018/9/26 10:35,5.4,1,5.5,1,9.7,2
2018/9/26 10:36,5.1,1,5.3,1,7.2,16
2018/9/26 10:37,5.1,1,5.2,1,10.1,3
2018/9/26 10:38,5.2,1,5.3,1,11.3,1
2018/9/26 10:39,5.2,1,5.2,1,11.5,1
2018/9/26 10:40,5.1,1,5.2,1,9.3,1
2018/9/26 10:41,5.3,1,5.3,1,9.4,1
2018/9/26 10:42,5.1,1,5.4,1,10.2,16
2018/9/26 10:43,5.1,1,5.1,1,11.6,15
2018/9/26 10:44,5.3,1,5.3,1,12.7,16
2018/9/26 10:45,5.3,1,5.3,1,9.2,2
2018/9/26 10:46,5.4,1,5.4,1,9,2
2018/9/26 10:47,5.2,1,5.5,1,8.1,2
2018/9/26 10:48,4.9,1,5.2,1,5.4,1
2018/9/26 10:49,4.5,1,4.9,1,6.8,16
2018/9/26 10:50,4.4,1,4.5,1,8.7,16
2018/9/26 10:51,4.4,1,4.4,1,10.9,1
2018/9/26 10:52,4.4,1,4.5,1,10.7,2
2018/9/26 10:53,4.4,1,4.5,1,8.1,16
2018/9/26 10:54,4.5,1,4.5,1,12.1,1
2018/9/26 10:55,4.5,1,4.5,1,12.6,2
2018/9/26 10:56,4.6,1,4.6,1,11.4,15
2018/9/26 10:57,4.9,1,4.9,1,11.1,16
2018/9/26 10:58,5.2,1,5.2,1,10.6,1
2018/9/26 10:59,5.4,1,5.5,1,9.2,16
2018/9/26 11:00,5.3,1,5.4,1,5.1,1
2018/9/26 11:01,5.1,1,5.4,1,7.2,15
2018/9/26 11:02,5.2,1,5.2,1,9.2,1
2018/9/26 11:03,5,1,5.2,1,6.8,1
2018/9/26 11:04,4.8,1,5,1,6.2,16
2018/9/26 11:05,4.7,1,4.8,1,11.4,2
2018/9/26 11:06,4.5,1,4.6,1,9.2,2
2018/9/26 11:07,4.2,1,4.4,1,7.8,2
2018/9/26 11:08,4,1,4.2,1,8.9,1
2018/9/26 11:09,3.9,1,4,1,8.4,15
2018/9/26 11:10,3.9,1,4,1,7,16
2018/9/26 11:11,4,1,4.1,1,8.2,2
2018/9/26 11:12,4,1,4,1,7.8,1
2018/9/26 11:13,4.1,1,4.1,1,6.5,1
2018/9/26 11:14,4.1,1,4.1,1,6.1,16
2018/9/26 11:15,4,1,4.1,1,6,2
2018/9/26 11:16,4.1,1,4.2,1,6.2,16
2018/9/26 11:17,3.9,1,4,1,5.8,1
2018/9/26 11:18,3.9,1,3.9,1,6.9,2
2018/9/26 11:19,3.9,1,4,1,10.6,2
2018/9/26 11:20,4.2,1,4.2,1,9,2
2018/9/26 11:21,4.1,1,4.2,1,6.8,1
2018/9/26 11:22,4.1,1,4.1,1,10.6,2
2018/9/26 11:23,4.2,1,4.2,1,9,16
2018/9/26 11:24,4.1,1,4.2,1,5.1,2
2018/9/26 11:25,4.3,1,4.3,1,8.2,1